Location: Santa Barbara
(34.4500°N, 119.7700°W)
Time: 07:36:13
(UTC-08:00)

Cosmos 1892 Rocket - Visible Passes

Search period start: 28 November 2014 00:00
Search period end: 08 December 2014 00:00
Orbit: 608 x 634 km, 82.5° (Epoch: 28 November)

Date Brightness Start Highest point End Pass type
(mag) Time Alt. Az. Time Alt. Az. Time Alt. Az.
28 Nov 5.3 04:25:59 12° NNE 04:29:34 31° ENE 04:33:29 10° SE visible
28 Nov 5.0 06:04:13 10° NW 06:07:10 18° W 06:10:05 10° SW visible
28 Nov 6.0 18:31:38 10° SW 18:35:10 23° WNW 18:38:43 10° NNW visible
29 Nov 3.9 04:45:17 26° N 04:47:41 64° E 04:52:03 10° SSE visible
29 Nov 3.9 17:11:01 10° SSE 17:15:16 48° E 17:19:34 10° NNE visible
29 Nov 6.7 18:51:47 10° W 18:53:27 12° WNW 18:55:06 10° NW visible
30 Nov 3.5 05:04:34 45° NW 05:05:42 62° W 05:10:03 10° S visible
30 Nov 3.7 17:28:49 10° S 17:33:15 82° W 17:37:45 10° N visible
01 Dec 6.2 03:46:34 17° E 03:46:34 17° E 03:48:46 10° ESE visible
01 Dec 4.4 05:23:51 30° W 05:23:51 30° W 05:27:27 10° SSW visible
01 Dec 5.0 17:47:11 10° SSW 17:51:20 39° W 17:55:33 10° N visible
02 Dec 5.6 04:05:49 24° SE 04:05:49 24° SE 04:07:57 10° SE visible
02 Dec 5.5 05:43:06 13° WSW 05:43:06 13° WSW 05:44:00 10° WSW visible
02 Dec 6.2 18:06:13 10° SW 18:09:32 20° WNW 18:12:52 10° NNW visible
03 Dec 5.6 04:25:01 20° SSE 04:25:01 20° SSE 04:26:23 10° SSE visible
03 Dec 6.9 18:27:09 10° W 18:27:50 10° WNW 18:28:30 10° WNW visible
04 Dec 6.1 04:44:09 11° S 04:44:09 11° S 04:44:16 10° S visible
05 Dec 5.4 17:21:37 10° SW 17:25:41 34° W 17:29:47 10° NNW visible
06 Dec 6.3 17:40:49 10° WSW 17:43:53 18° WNW 17:46:58 10° NNW visible
